• In Deutschland
  • Länderverzeichnis
  • Für 7 Tage
  • Wassertemperatur
  • Satellitenkarten
  • Wetterkarte
  • Widgets
  • user-avatar
    Anmelden

    Stündliche Wetter Winterberg

    Heute, 21 Juli, Samstag

    Zeit Temperatur Niederschläge Wind Luftdruck Luftfeuchtigkeit
    00:00 +17°C° 0,1 mm 2 m/S 716 mmHg 75%
    01:00 +17°C° 0 mm 2 m/S 716 mmHg 74%
    02:00 +17°C° 0 mm 2 m/S 716 mmHg 76%
    03:00 +16°C° 0 mm 1 m/S 716 mmHg 78%
    04:00 +16°C° 0 mm 1 m/S 716 mmHg 80%
    05:00 +18°C° 0 mm 1 m/S 716 mmHg 78%
    06:00 +19°C° 0 mm 1 m/S 716 mmHg 77%
    07:00 +20°C° 0 mm 1 m/S 716 mmHg 73%
    08:00 +21°C° 0,1 mm 1 m/S 716 mmHg 69%
    09:00 +23°C° 0,1 mm 1 m/S 717 mmHg 65%
    10:00 +24°C° 0,1 mm 2 m/S 717 mmHg 61%
    11:00 +24°C° 1,1 mm 2 m/S 717 mmHg 64%
    12:00 +24°C° 1,1 mm 2 m/S 717 mmHg 66%
    13:00 +24°C° 1,1 mm 2 m/S 717 mmHg 69%
    14:00 +24°C° 0,6 mm 2 m/S 717 mmHg 70%
    15:00 +23°C° 0,6 mm 2 m/S 717 mmHg 72%
    16:00 +23°C° 0,6 mm 2 m/S 717 mmHg 73%
    17:00 +21°C° 0,3 mm 2 m/S 717 mmHg 78%
    18:00 +21°C° 0,3 mm 1 m/S 716 mmHg 82%
    19:00 +21°C° 0,3 mm 1 m/S 716 mmHg 86%
    20:00 +20°C° 0 mm 1 m/S 716 mmHg 88%
    21:00 +18°C° 0 mm 1 m/S 716 mmHg 90%
    22:00 +16°C° 0 mm 1 m/S 716 mmHg 92%
    23:00 +16°C° 0 mm 1 m/S 716 mmHg 92%

    Morgen, 22 Juli, Sonntag

    Zeit Temperatur Niederschläge Wind Luftdruck Luftfeuchtigkeit
    00:00 +16°C° 0 mm 1 m/S 716 mmHg 92%
    01:00 +15°C° 0 mm 1 m/S 716 mmHg 92%
    02:00 +15°C° 0,1 mm 1 m/S 716 mmHg 92%
    03:00 +15°C° 0,1 mm 1 m/S 717 mmHg 92%
    04:00 +15°C° 0,1 mm 1 m/S 717 mmHg 92%
    05:00 +16°C° 0,2 mm 1 m/S 717 mmHg 90%
    06:00 +18°C° 0,2 mm 1 m/S 717 mmHg 88%
    07:00 +19°C° 0,2 mm 1 m/S 717 mmHg 86%
    08:00 +20°C° 0,1 mm 1 m/S 718 mmHg 79%
    09:00 +22°C° 0,1 mm 1 m/S 718 mmHg 73%
    10:00 +24°C° 0,1 mm 1 m/S 718 mmHg 66%
    11:00 +24°C° 0,7 mm 1 m/S 718 mmHg 66%
    12:00 +24°C° 0,7 mm 2 m/S 718 mmHg 66%
    13:00 +24°C° 0,7 mm 2 m/S 718 mmHg 66%
    14:00 +24°C° 0,9 mm 2 m/S 718 mmHg 67%
    15:00 +24°C° 0,9 mm 2 m/S 718 mmHg 68%
    16:00 +24°C° 0,9 mm 2 m/S 718 mmHg 69%
    17:00 +23°C° 0,5 mm 2 m/S 718 mmHg 73%
    18:00 +23°C° 0,5 mm 2 m/S 718 mmHg 76%
    19:00 +22°C° 0,5 mm 1 m/S 718 mmHg 80%
    20:00 +21°C° 0 mm 1 m/S 718 mmHg 83%
    21:00 +19°C° 0 mm 1 m/S 718 mmHg 86%
    22:00 +16°C° 0 mm 1 m/S 718 mmHg 88%
    23:00 +16°C° 0 mm 1 m/S 718 mmHg 89%

    übermorgen, 23 Juli, Montag

    Zeit Temperatur Niederschläge Wind Luftdruck Luftfeuchtigkeit
    00:00 +15°C° 0 mm 1 m/S 719 mmHg 90%
    01:00 +15°C° 0 mm 1 m/S 719 mmHg 92%
    02:00 +14°C° 0 mm 1 m/S 719 mmHg 92%
    03:00 +14°C° 0 mm 1 m/S 719 mmHg 92%
    04:00 +14°C° 0 mm 1 m/S 719 mmHg 93%
    05:00 +15°C° 0 mm 1 m/S 719 mmHg 90%
    06:00 +16°C° 0 mm 1 m/S 719 mmHg 86%
    07:00 +16°C° 0 mm 0 m/S 720 mmHg 83%
    08:00 +20°C° 0 mm 1 m/S 720 mmHg 76%
    09:00 +22°C° 0 mm 1 m/S 720 mmHg 68%
    10:00 +24°C° 0 mm 1 m/S 720 mmHg 61%
    11:00 +24°C° 0 mm 1 m/S 720 mmHg 58%
    12:00 +25°C° 0 mm 1 m/S 720 mmHg 55%
    13:00 +25°C° 0 mm 2 m/S 720 mmHg 53%
    14:00 +25°C° 0 mm 2 m/S 720 mmHg 54%
    15:00 +25°C° 0 mm 2 m/S 720 mmHg 55%
    16:00 +25°C° 0 mm 2 m/S 720 mmHg 57%
    17:00 +24°C° 0 mm 2 m/S 720 mmHg 63%
    18:00 +23°C° 0 mm 2 m/S 720 mmHg 68%
    19:00 +22°C° 0 mm 1 m/S 720 mmHg 74%
    20:00 +21°C° 0 mm 1 m/S 720 mmHg 78%
    21:00 +20°C° 0 mm 1 m/S 720 mmHg 82%
    22:00 +16°C° 0 mm 0 m/S 720 mmHg 86%
    23:00 +16°C° 0 mm 0 m/S 720 mmHg 87%

    24 Juli, Dienstag

    Zeit Temperatur Niederschläge Wind Luftdruck Luftfeuchtigkeit
    00:00 +15°C° 0 mm 0 m/S 720 mmHg 89%
    01:00 +15°C° 0 mm 0 m/S 720 mmHg 90%
    02:00 +14°C° 0 mm 0 m/S 720 mmHg 90%
    03:00 +14°C° 0 mm 0 m/S 720 mmHg 91%
    04:00 +14°C° 0 mm 0 m/S 720 mmHg 91%
    05:00 +15°C° 0 mm 0 m/S 720 mmHg 87%
    06:00 +17°C° 0 mm 0 m/S 720 mmHg 83%
    07:00 +20°C° 0 mm 1 m/S 720 mmHg 78%
    08:00 +22°C° 0 mm 1 m/S 720 mmHg 72%
    09:00 +23°C° 0 mm 1 m/S 720 mmHg 66%
    10:00 +25°C° 0 mm 1 m/S 720 mmHg 59%
    11:00 +26°C° 0 mm 1 m/S 720 mmHg 57%
    12:00 +26°C° 0 mm 1 m/S 720 mmHg 54%
    13:00 +27°C° 0 mm 1 m/S 720 mmHg 51%
    14:00 +27°C° 0 mm 1 m/S 720 mmHg 51%
    15:00 +27°C° 0 mm 1 m/S 719 mmHg 51%
    16:00 +28°C° 0 mm 1 m/S 719 mmHg 51%
    17:00 +27°C° 0 mm 1 m/S 719 mmHg 57%
    18:00 +26°C° 0 mm 1 m/S 719 mmHg 62%
    19:00 +25°C° 0 mm 1 m/S 719 mmHg 67%
    20:00 +23°C° 0 mm 1 m/S 719 mmHg 72%
    21:00 +21°C° 0 mm 1 m/S 719 mmHg 76%
    22:00 +20°C° 0 mm 1 m/S 719 mmHg 80%
    23:00 +19°C° 0 mm 1 m/S 719 mmHg 81%

    25 Juli, Mittwoch

    Zeit Temperatur Niederschläge Wind Luftdruck Luftfeuchtigkeit
    00:00 +19°C° 0 mm 1 m/S 719 mmHg 83%
    01:00 +16°C° 0 mm 0 m/S 719 mmHg 84%
    02:00 +16°C° 0 mm 0 m/S 719 mmHg 85%
    03:00 +16°C° 0 mm 0 m/S 719 mmHg 86%
    04:00 +15°C° 0 mm 0 m/S 719 mmHg 87%
    05:00 +17°C° 0 mm 0 m/S 719 mmHg 83%
    06:00 +18°C° 0 mm 0 m/S 719 mmHg 78%
    07:00 +19°C° 0 mm 0 m/S 720 mmHg 74%
    08:00 +23°C° 0 mm 1 m/S 720 mmHg 67%
    09:00 +25°C° 0 mm 1 m/S 720 mmHg 61%
    10:00 +27°C° 0 mm 1 m/S 720 mmHg 54%
    11:00 +27°C° 0 mm 2 m/S 720 mmHg 52%
    12:00 +28°C° 0 mm 2 m/S 720 mmHg 50%
    13:00 +29°C° 0 mm 2 m/S 720 mmHg 48%
    14:00 +29°C° 0 mm 2 m/S 720 mmHg 49%
    15:00 +29°C° 0 mm 2 m/S 720 mmHg 50%
    16:00 +28°C° 0 mm 1 m/S 720 mmHg 50%
    17:00 +28°C° 0 mm 1 m/S 719 mmHg 56%
    18:00 +27°C° 0 mm 1 m/S 719 mmHg 61%
    19:00 +26°C° 0 mm 1 m/S 719 mmHg 66%
    20:00 +24°C° 0 mm 1 m/S 719 mmHg 69%
    21:00 +23°C° 0 mm 1 m/S 719 mmHg 73%
    22:00 +21°C° 0 mm 1 m/S 720 mmHg 76%
    23:00 +18°C° 0 mm 0 m/S 720 mmHg 78%

    26 Juli, Donnerstag

    Zeit Temperatur Niederschläge Wind Luftdruck Luftfeuchtigkeit
    00:00 +18°C° 0 mm 0 m/S 720 mmHg 79%
    01:00 +17°C° 0 mm 0 m/S 720 mmHg 81%
    02:00 +17°C° 0 mm 0 m/S 720 mmHg 81%
    03:00 +16°C° 0 mm 0 m/S 720 mmHg 82%
    04:00 +16°C° 0 mm 0 m/S 720 mmHg 83%
    05:00 +17°C° 0 mm 0 m/S 720 mmHg 79%
    06:00 +19°C° 0 mm 0 m/S 720 mmHg 75%
    07:00 +20°C° 0 mm 0 m/S 721 mmHg 72%
    08:00 +24°C° 0 mm 1 m/S 721 mmHg 65%
    09:00 +26°C° 0 mm 1 m/S 721 mmHg 58%
    10:00 +28°C° 0 mm 2 m/S 722 mmHg 51%
    11:00 +28°C° 0 mm 2 m/S 721 mmHg 49%
    12:00 +29°C° 0 mm 2 m/S 721 mmHg 46%
    13:00 +29°C° 0 mm 2 m/S 721 mmHg 44%
    14:00 +29°C° 0 mm 2 m/S 721 mmHg 45%
    15:00 +29°C° 0 mm 2 m/S 721 mmHg 46%
    16:00 +29°C° 0 mm 2 m/S 721 mmHg 47%
    17:00 +28°C° 0 mm 2 m/S 721 mmHg 52%
    18:00 +27°C° 0 mm 2 m/S 721 mmHg 56%
    19:00 +26°C° 0 mm 2 m/S 721 mmHg 61%
    20:00 +24°C° 0 mm 1 m/S 721 mmHg 63%
    21:00 +22°C° 0 mm 1 m/S 721 mmHg 65%
    22:00 +20°C° 0 mm 1 m/S 721 mmHg 67%
    23:00 +20°C° 0 mm 1 m/S 721 mmHg 68%
    Mehr zeigen